Weather History for Gambell, AK

Change the Weather History Date:

Friday, August 30, 2013

  Actual Average Record
Temperature  
Mean Temperature 42 °F -  
Max Temperature 44 °F 46 °F 53 °F (2004)
Min Temperature 39 °F 41 °F 37 °F (1998)
Degree Days  
Heating Degree Days 24    
Moisture  
Dew Point 39 °F    
Average Humidity 91    
Maximum Humidity 100    
Minimum Humidity 87    
Precipitation  
Precipitation 0.13 in - - ()
Sea Level Pressure  
Sea Level Pressure 29.97 in    
Wind  
Wind Speed - (North)    
Max Wind Speed -    
Max Gust Speed -    
Visibility 7 miles    
Events      
Averages and records for this station are not official NWS values.
T = Trace of Precipitation, MM = Missing Value Source: NWS Daily Summary

Daily Weather History Graph

Daily Weather History Graph

Search for Another Location

Airport:

Trip Planner

Search our weather history database for the weather conditions in past years. The results will help you decide how hot, cold, wet, or windy it might be!

Date:

Astronomy

Aug. 30, 2013 Rise Set
Actual Time 8:06 AM AKDT 10:46 PM AKDT
Civil Twilight 7:13 AM AKDT 11:39 PM AKDT
Nautical Twilight 5:58 AM AKDT 12:52 AM AKDT
Astronomical Twilight 3:59 AM AKDT 2:54 AM AKDT
Moon 1:44 AM AKDT (8/30) 8:17 PM AKDT (8/30)
Length of Visible Light 16h 25m
Length of Day
14h 40m
Waning Crescent, 28% of the Moon is Illuminated
Aug 30
Waning Crescent
Sep 5
New
Sep 12
First Quarter
Sep 19
Full
Sep 26
Last Quarter

Hourly Weather History & Observations

Time (AKDT) Temp. Dew Point Humidity Pressure Visibility Wind Dir Wind Speed Gust Speed Precip Events Conditions
12:16 AM 44.6 °F 42.8 °F 93% 29.98 in 5.0 mi North - - 0.01 in   Mostly Cloudy
12:36 AM 42.8 °F 41.0 °F 93% 29.97 in 10.0 mi North - - 0.02 in   Overcast
12:56 AM 44.6 °F 42.8 °F 93% 29.98 in 10.0 mi North - - 0.02 in   Overcast
1:16 AM 44.6 °F 42.8 °F 93% 29.98 in 10.0 mi North - - N/A   Overcast
1:36 AM 44.6 °F 41.0 °F 87% 29.98 in 10.0 mi North - - N/A   Overcast
1:56 AM 44.6 °F 41.0 °F 87% 29.97 in 10.0 mi North - - N/A   Overcast
2:16 AM 44.6 °F 41.0 °F 87% 29.97 in 10.0 mi North - - N/A   Overcast
2:36 AM 44.6 °F 41.0 °F 87% 29.97 in 10.0 mi North - - N/A   Overcast
2:56 AM 44.6 °F 41.0 °F 87% 29.97 in 10.0 mi North - - N/A   Overcast
3:16 AM 42.8 °F 41.0 °F 93% 29.97 in 10.0 mi North - - N/A   Overcast
3:36 AM 42.8 °F 39.2 °F 87% 29.98 in 9.0 mi North - - N/A   Overcast
3:56 AM 41.0 °F 39.2 °F 93% 29.98 in 7.0 mi North - - N/A   Overcast
4:16 AM 41.0 °F 39.2 °F 93% 29.98 in 6.0 mi North - - N/A   Overcast
4:36 AM 41.0 °F 39.2 °F 93% 29.98 in 4.0 mi North - - N/A   Overcast
4:56 AM 41.0 °F 39.2 °F 93% 29.99 in 4.0 mi North - - N/A   Overcast
5:16 AM 41.0 °F 39.2 °F 93% 29.99 in 4.0 mi North - - N/A   Overcast
5:36 AM 39.2 °F 37.4 °F 93% 29.99 in 5.0 mi North - - N/A   Overcast
5:56 AM 39.2 °F 37.4 °F 93% 29.99 in 9.0 mi North - - N/A   Overcast
6:16 AM 41.0 °F 39.2 °F 93% 29.99 in 9.0 mi North - - N/A   Overcast
6:36 AM 39.2 °F 39.2 °F 100% 29.99 in 10.0 mi North - - N/A   Overcast
6:56 AM 41.0 °F 37.4 °F 87% 29.99 in 10.0 mi North - - N/A   Overcast
7:16 AM 39.2 °F 39.2 °F 100% 29.98 in 10.0 mi North - - N/A   Overcast
7:36 AM 39.2 °F 37.4 °F 93% 29.99 in 5.0 mi North - - N/A   Overcast
7:56 AM 39.2 °F 37.4 °F 93% 29.99 in 6.0 mi North - - N/A   Overcast
8:16 AM 39.2 °F 37.4 °F 93% 29.99 in 6.0 mi North - - N/A   Overcast
8:36 AM 41.0 °F 39.2 °F 93% 29.99 in 4.0 mi North - - N/A   Overcast
8:56 AM 39.2 °F 37.4 °F 93% 30.00 in 4.0 mi North - - N/A   Overcast
9:16 AM 39.2 °F 37.4 °F 93% 30.00 in 3.0 mi North - - N/A   Overcast
9:36 AM 39.2 °F 37.4 °F 93% 30.00 in 3.0 mi North - - N/A   Overcast
9:56 AM 39.2 °F 37.4 °F 93% 30.00 in 2.5 mi North - - N/A   Overcast
10:16 AM 39.2 °F 37.4 °F 93% 30.00 in 3.0 mi North - - N/A   Overcast
10:36 AM 39.2 °F 37.4 °F 93% 30.00 in 8.0 mi North - - N/A   Overcast
10:56 AM 39.2 °F 37.4 °F 93% 30.00 in 7.0 mi North - - N/A   Overcast
11:16 AM 39.2 °F 37.4 °F 93% 30.00 in 5.0 mi North - - 0.01 in   Overcast
11:36 AM 39.2 °F 37.4 °F 93% 30.00 in 2.0 mi North - - 0.01 in   Overcast
11:56 AM 39.2 °F 37.4 °F 93% 30.00 in 1.2 mi North - - 0.01 in   Overcast
12:16 PM 39.2 °F 37.4 °F 93% 30.00 in 1.5 mi North - - N/A   Overcast
12:36 PM 39.2 °F 37.4 °F 93% 30.00 in 1.2 mi North - - N/A   Overcast
12:56 PM 39.2 °F 37.4 °F 93% 30.00 in 1.5 mi North - - N/A   Overcast
1:16 PM 39.2 °F 37.4 °F 93% 30.00 in 1.8 mi North - - N/A   Overcast
1:36 PM 39.2 °F 37.4 °F 93% 30.00 in 8.0 mi North - - N/A   Overcast
1:56 PM 39.2 °F 37.4 °F 93% 30.00 in 10.0 mi North - - N/A   Overcast
2:16 PM 39.2 °F 37.4 °F 93% 30.00 in 10.0 mi North - - N/A   Overcast
2:36 PM 39.2 °F 37.4 °F 93% 29.99 in 7.0 mi North - - N/A   Overcast
2:56 PM 39.2 °F 37.4 °F 93% 29.99 in 9.0 mi North - - 0.01 in   Overcast
3:16 PM 41.0 °F 37.4 °F 87% 29.99 in 10.0 mi North - - N/A   Overcast
3:36 PM 41.0 °F 37.4 °F 87% 29.98 in 9.0 mi North - - N/A   Overcast
3:56 PM 41.0 °F 37.4 °F 87% 29.98 in 10.0 mi North - - N/A   Overcast
4:16 PM 41.0 °F 39.2 °F 93% 29.98 in 10.0 mi North - - N/A   Overcast
4:36 PM 41.0 °F 39.2 °F 93% 29.98 in 10.0 mi North - - N/A   Overcast
4:56 PM 41.0 °F 37.4 °F 87% 29.97 in 9.0 mi North - - N/A   Overcast
5:16 PM 41.0 °F 37.4 °F 87% 29.97 in 10.0 mi North - - N/A   Overcast
5:36 PM 41.0 °F 39.2 °F 93% 29.96 in 10.0 mi North - - N/A   Overcast
5:56 PM 41.0 °F 37.4 °F 87% 29.96 in 10.0 mi North - - N/A   Overcast
6:16 PM 41.0 °F 39.2 °F 93% 29.95 in 10.0 mi North - - N/A   Overcast
6:36 PM 41.0 °F 39.2 °F 93% 29.95 in 10.0 mi North - - 0.01 in   Overcast
6:56 PM 42.8 °F 39.2 °F 87% 29.94 in 10.0 mi North - - 0.01 in   Overcast
7:16 PM 42.8 °F 39.2 °F 87% 29.94 in 10.0 mi North - - N/A   Overcast
7:36 PM 42.8 °F 39.2 °F 87% 29.93 in 10.0 mi North - - N/A   Overcast
7:56 PM 42.8 °F 39.2 °F 87% 29.93 in 10.0 mi North - - N/A   Overcast
8:16 PM 42.8 °F 39.2 °F 87% 29.92 in 5.0 mi North - - N/A   Overcast
8:36 PM 42.8 °F 39.2 °F 87% 29.91 in 5.0 mi North - - 0.01 in   Overcast
8:56 PM 42.8 °F 39.2 °F 87% 29.91 in 3.0 mi North - - 0.02 in   Overcast
9:16 PM 42.8 °F 41.0 °F 93% 29.90 in 5.0 mi North - - 0.01 in   Overcast
9:36 PM 42.8 °F 41.0 °F 93% 29.90 in 7.0 mi North - - 0.02 in   Overcast
9:56 PM 42.8 °F 41.0 °F 93% 29.90 in 2.5 mi North - - 0.02 in   Overcast
10:16 PM 42.8 °F 41.0 °F 93% 29.90 in 2.5 mi North - - 0.01 in   Overcast
10:36 PM 42.8 °F 41.0 °F 93% 29.90 in 3.0 mi North - - 0.02 in   Overcast
10:56 PM 42.8 °F 41.0 °F 93% 29.90 in 5.0 mi North - - 0.03 in   Overcast
11:16 PM 42.8 °F 41.0 °F 93% 29.90 in 9.0 mi North - - N/A   Overcast
11:36 PM 42.8 °F 39.2 °F 87% 29.90 in 5.0 mi North - - 0.01 in   Mostly Cloudy
11:56 PM 42.8 °F 39.2 °F 87% 29.90 in 10.0 mi North - - 0.01 in   Overcast